Year,Month,Day,Hour,Minute,Value (Times are PST for temperature in C)
2008,11,25,00,00,3.10
2008,11,25,00,01,3.10
2008,11,25,00,02,3.10
2008,11,25,00,03,3.10
2008,11,25,00,04,3.10
2008,11,25,00,05,3.10
2008,11,25,00,06,3.10
2008,11,25,00,07,3.10
2008,11,25,00,08,3.10
2008,11,25,00,09,3.10
2008,11,25,00,10,3.10
2008,11,25,00,11,3.10
2008,11,25,00,12,3.10
2008,11,25,00,13,3.10
2008,11,25,00,14,3.10
2008,11,25,00,15,3.10
2008,11,25,00,16,3.00
2008,11,25,00,17,3.00
2008,11,25,00,18,3.00
2008,11,25,00,19,3.00
2008,11,25,00,20,2.90
2008,11,25,00,21,2.90
2008,11,25,00,22,2.90
2008,11,25,00,23,2.90
2008,11,25,00,24,2.90
2008,11,25,00,25,2.90
2008,11,25,00,26,2.90
2008,11,25,00,27,3.00
2008,11,25,00,28,3.00
2008,11,25,00,29,3.00
2008,11,25,00,30,3.00
2008,11,25,00,31,2.90
2008,11,25,00,32,2.90
2008,11,25,00,33,2.90
2008,11,25,00,34,2.90
2008,11,25,00,35,2.90
2008,11,25,00,36,2.90
2008,11,25,00,37,2.80
2008,11,25,00,38,2.80
2008,11,25,00,39,2.70
2008,11,25,00,40,2.70
2008,11,25,00,41,2.70
2008,11,25,00,42,2.60
2008,11,25,00,43,2.60
2008,11,25,00,44,2.60
2008,11,25,00,45,2.50
2008,11,25,00,46,2.50
2008,11,25,00,47,2.50
2008,11,25,00,48,2.50
2008,11,25,00,49,2.40
2008,11,25,00,50,2.40
2008,11,25,00,51,2.40
2008,11,25,00,52,2.40
2008,11,25,00,53,2.30
2008,11,25,00,54,2.30
2008,11,25,00,55,2.30
2008,11,25,00,56,2.30
2008,11,25,00,57,2.30
2008,11,25,00,58,2.30
2008,11,25,00,59,2.30
2008,11,25,01,00,2.30
2008,11,25,01,01,2.30
2008,11,25,01,02,2.30
2008,11,25,01,03,2.30
2008,11,25,01,04,2.30
2008,11,25,01,05,2.30
2008,11,25,01,06,2.30
2008,11,25,01,07,2.30
2008,11,25,01,08,2.30
2008,11,25,01,09,2.30
2008,11,25,01,10,2.30
2008,11,25,01,11,2.20
2008,11,25,01,12,2.20
2008,11,25,01,13,2.20
2008,11,25,01,14,2.20
2008,11,25,01,15,2.20
2008,11,25,01,16,2.20
2008,11,25,01,17,2.20
2008,11,25,01,18,2.20
2008,11,25,01,19,2.20
2008,11,25,01,20,2.20
2008,11,25,01,21,2.20
2008,11,25,01,22,2.20
2008,11,25,01,23,2.20
2008,11,25,01,24,2.20
2008,11,25,01,25,2.20
2008,11,25,01,26,2.20
2008,11,25,01,27,2.20
2008,11,25,01,28,2.20
2008,11,25,01,29,2.20
2008,11,25,01,30,2.20
2008,11,25,01,31,2.20
2008,11,25,01,32,2.20
2008,11,25,01,33,2.20
2008,11,25,01,34,2.20
2008,11,25,01,35,2.20
2008,11,25,01,36,2.20
2008,11,25,01,37,2.20
2008,11,25,01,38,2.20
2008,11,25,01,39,2.20
2008,11,25,01,40,2.20
2008,11,25,01,41,2.20
2008,11,25,01,42,2.20
2008,11,25,01,43,2.20
2008,11,25,01,44,2.20
2008,11,25,01,45,2.20
2008,11,25,01,46,2.20
2008,11,25,01,47,2.20
2008,11,25,01,48,2.20
2008,11,25,01,49,2.10
2008,11,25,01,50,2.10
2008,11,25,01,51,2.10
2008,11,25,01,52,2.10
2008,11,25,01,53,2.20
2008,11,25,01,54,2.20
2008,11,25,01,55,2.20
2008,11,25,01,56,2.30
2008,11,25,01,57,2.30
2008,11,25,01,58,2.30
2008,11,25,01,59,2.40
2008,11,25,02,00,2.50
2008,11,25,02,01,2.50
2008,11,25,02,02,2.60
2008,11,25,02,03,2.60
2008,11,25,02,04,2.60
2008,11,25,02,05,2.60
2008,11,25,02,06,2.60
2008,11,25,02,07,2.60
2008,11,25,02,08,2.60
2008,11,25,02,09,2.60
2008,11,25,02,10,2.50
2008,11,25,02,11,2.60
2008,11,25,02,12,2.60
2008,11,25,02,13,2.60
2008,11,25,02,14,2.60
2008,11,25,02,15,2.60
2008,11,25,02,16,2.60
2008,11,25,02,17,2.70
2008,11,25,02,18,2.70
2008,11,25,02,19,2.70
2008,11,25,02,20,2.70
2008,11,25,02,21,2.70
2008,11,25,02,22,2.70
2008,11,25,02,23,2.70
2008,11,25,02,24,2.70
2008,11,25,02,25,2.70
2008,11,25,02,26,2.70
2008,11,25,02,27,2.70
2008,11,25,02,28,2.70
2008,11,25,02,29,2.70
2008,11,25,02,30,2.70
2008,11,25,02,31,2.80
2008,11,25,02,32,2.80
2008,11,25,02,33,2.80
2008,11,25,02,34,2.80
2008,11,25,02,35,2.80
2008,11,25,02,36,2.80
2008,11,25,02,37,2.80
2008,11,25,02,38,2.80
2008,11,25,02,39,2.80
2008,11,25,02,40,2.80
2008,11,25,02,41,2.80
2008,11,25,02,42,2.90
2008,11,25,02,43,2.90
2008,11,25,02,44,2.90
2008,11,25,02,45,2.90
2008,11,25,02,46,2.90
2008,11,25,02,47,2.90
2008,11,25,02,48,2.90
2008,11,25,02,49,2.90
2008,11,25,02,50,2.90
2008,11,25,02,51,2.90
2008,11,25,02,52,2.90
2008,11,25,02,53,2.90
2008,11,25,02,54,2.80
2008,11,25,02,55,2.80
2008,11,25,02,56,2.80
2008,11,25,02,57,2.80
2008,11,25,02,58,2.80
2008,11,25,02,59,2.80
2008,11,25,03,00,2.80
2008,11,25,03,01,2.70
2008,11,25,03,02,2.70
2008,11,25,03,03,2.70
2008,11,25,03,04,2.70
2008,11,25,03,05,2.70
2008,11,25,03,06,2.70
2008,11,25,03,07,2.70
2008,11,25,03,08,2.70
2008,11,25,03,09,2.70
2008,11,25,03,10,2.70
2008,11,25,03,11,2.80
2008,11,25,03,12,2.80
2008,11,25,03,13,2.80
2008,11,25,03,14,2.70
2008,11,25,03,15,2.70
2008,11,25,03,16,2.70
2008,11,25,03,17,2.70
2008,11,25,03,18,2.70
2008,11,25,03,19,2.70
2008,11,25,03,20,2.70
2008,11,25,03,21,2.70
2008,11,25,03,22,2.70
2008,11,25,03,23,2.70
2008,11,25,03,24,2.70
2008,11,25,03,25,2.80
2008,11,25,03,26,2.80
2008,11,25,03,27,2.80
2008,11,25,03,28,2.80
2008,11,25,03,29,2.80
2008,11,25,03,30,2.80
2008,11,25,03,31,2.70
2008,11,25,03,32,2.70
2008,11,25,03,33,2.70
2008,11,25,03,34,2.70
2008,11,25,03,35,2.70
2008,11,25,03,36,2.70
2008,11,25,03,37,2.70
2008,11,25,03,38,2.70
2008,11,25,03,39,2.70
2008,11,25,03,40,2.70
2008,11,25,03,41,2.60
2008,11,25,03,42,2.60
2008,11,25,03,43,2.60
2008,11,25,03,44,2.70
2008,11,25,03,45,2.70
2008,11,25,03,46,2.70
2008,11,25,03,47,2.70
2008,11,25,03,48,2.70
2008,11,25,03,49,2.70
2008,11,25,03,50,2.70
2008,11,25,03,51,2.70
2008,11,25,03,52,2.60
2008,11,25,03,53,2.60
2008,11,25,03,54,2.60
2008,11,25,03,55,2.60
2008,11,25,03,56,2.60
2008,11,25,03,57,2.70
2008,11,25,03,58,2.70
2008,11,25,03,59,2.60
2008,11,25,04,00,2.60
2008,11,25,04,01,2.60
2008,11,25,04,02,2.60
2008,11,25,04,03,2.60
2008,11,25,04,04,2.60
2008,11,25,04,05,2.70
2008,11,25,04,06,2.70
2008,11,25,04,07,2.70
2008,11,25,04,08,2.70
2008,11,25,04,09,2.80
2008,11,25,04,10,2.80
2008,11,25,04,11,2.90
2008,11,25,04,12,2.90
2008,11,25,04,13,2.90
2008,11,25,04,14,3.00
2008,11,25,04,15,3.00
2008,11,25,04,16,3.10
2008,11,25,04,17,3.10
2008,11,25,04,18,3.10
2008,11,25,04,19,3.10
2008,11,25,04,20,3.10
2008,11,25,04,21,3.10
2008,11,25,04,22,3.20
2008,11,25,04,23,3.20
2008,11,25,04,24,3.20
2008,11,25,04,25,3.20
2008,11,25,04,26,3.20
2008,11,25,04,27,3.20
2008,11,25,04,28,3.20
2008,11,25,04,29,3.20
2008,11,25,04,30,3.10
2008,11,25,04,31,3.10
2008,11,25,04,32,3.10
2008,11,25,04,33,3.10
2008,11,25,04,34,3.10
2008,11,25,04,35,3.20
2008,11,25,04,36,3.30
2008,11,25,04,37,3.50
2008,11,25,04,38,3.60
2008,11,25,04,39,3.70
2008,11,25,04,40,3.80
2008,11,25,04,41,3.90
2008,11,25,04,42,3.90
2008,11,25,04,43,4.00
2008,11,25,04,44,4.10
2008,11,25,04,45,4.10
2008,11,25,04,46,4.10
2008,11,25,04,47,4.20
2008,11,25,04,48,4.20
2008,11,25,04,49,4.30
2008,11,25,04,50,4.40
2008,11,25,04,51,4.40
2008,11,25,04,52,4.50
2008,11,25,04,53,4.60
2008,11,25,04,54,4.70
2008,11,25,04,55,4.70
2008,11,25,04,56,4.70
2008,11,25,04,57,4.80
2008,11,25,04,58,4.90
2008,11,25,04,59,5.00
2008,11,25,05,00,5.10
2008,11,25,05,01,5.10
2008,11,25,05,02,5.20
2008,11,25,05,03,5.30
2008,11,25,05,04,5.30
2008,11,25,05,05,5.40
2008,11,25,05,06,5.40
2008,11,25,05,07,5.40
2008,11,25,05,08,5.50
2008,11,25,05,09,5.40
2008,11,25,05,10,5.40
2008,11,25,05,11,5.40
2008,11,25,05,12,5.30
2008,11,25,05,13,5.30
2008,11,25,05,14,5.30
2008,11,25,05,15,5.20
2008,11,25,05,16,5.20
2008,11,25,05,17,5.20
2008,11,25,05,18,5.20
2008,11,25,05,19,5.20
2008,11,25,05,20,5.20
2008,11,25,05,21,5.20
2008,11,25,05,22,5.10
2008,11,25,05,23,5.10
2008,11,25,05,24,5.10
2008,11,25,05,25,5.00
2008,11,25,05,26,5.00
2008,11,25,05,27,4.90
2008,11,25,05,28,4.90
2008,11,25,05,29,4.90
2008,11,25,05,30,4.90
2008,11,25,05,31,4.80
2008,11,25,05,32,4.80
2008,11,25,05,33,4.80
2008,11,25,05,34,4.80
2008,11,25,05,35,4.80
2008,11,25,05,36,4.80
2008,11,25,05,37,4.70
2008,11,25,05,38,4.70
2008,11,25,05,39,4.70
2008,11,25,05,40,4.70
2008,11,25,05,41,4.70
2008,11,25,05,42,4.70
2008,11,25,05,43,4.60
2008,11,25,05,44,4.60
2008,11,25,05,45,4.60
2008,11,25,05,46,4.60
2008,11,25,05,47,4.60
2008,11,25,05,48,4.60
2008,11,25,05,49,4.60
2008,11,25,05,50,4.50
2008,11,25,05,51,4.50
2008,11,25,05,52,4.50
2008,11,25,05,53,4.50
2008,11,25,05,54,4.50
2008,11,25,05,55,4.50
2008,11,25,05,56,4.40
2008,11,25,05,57,4.40
2008,11,25,05,58,4.40
2008,11,25,05,59,4.40
2008,11,25,06,00,4.40
2008,11,25,06,01,4.30
2008,11,25,06,02,4.30
2008,11,25,06,03,4.30
2008,11,25,06,04,4.30
2008,11,25,06,05,4.30
2008,11,25,06,06,4.30
2008,11,25,06,07,4.30
2008,11,25,06,08,4.20
2008,11,25,06,09,4.30
2008,11,25,06,10,4.30
2008,11,25,06,11,4.20
2008,11,25,06,12,4.30
2008,11,25,06,13,4.30
2008,11,25,06,14,4.30
2008,11,25,06,15,4.30
2008,11,25,06,16,4.30
2008,11,25,06,17,4.30
2008,11,25,06,18,4.30
2008,11,25,06,19,4.30
2008,11,25,06,20,4.30
2008,11,25,06,21,4.30
2008,11,25,06,22,4.30
2008,11,25,06,23,4.40
2008,11,25,06,24,4.40
2008,11,25,06,25,4.40
2008,11,25,06,26,4.40
2008,11,25,06,27,4.40
2008,11,25,06,28,4.40
2008,11,25,06,29,4.50
2008,11,25,06,30,4.50
2008,11,25,06,31,4.60
2008,11,25,06,32,4.60
2008,11,25,06,33,4.60
2008,11,25,06,34,4.60
2008,11,25,06,35,4.60
2008,11,25,06,36,4.60
2008,11,25,06,37,4.60
2008,11,25,06,38,4.70
2008,11,25,06,39,4.70
2008,11,25,06,40,4.70
2008,11,25,06,41,4.70
2008,11,25,06,42,4.70
2008,11,25,06,43,4.70
2008,11,25,06,44,4.70
2008,11,25,06,45,4.70
2008,11,25,06,46,4.70
2008,11,25,06,47,4.70
2008,11,25,06,48,4.70
2008,11,25,06,49,4.70
2008,11,25,06,50,4.70
2008,11,25,06,51,4.70
2008,11,25,06,52,4.70
2008,11,25,06,53,4.70
2008,11,25,06,54,4.70
2008,11,25,06,55,4.70
2008,11,25,06,56,4.70
2008,11,25,06,57,4.70
2008,11,25,06,58,4.70
2008,11,25,06,59,4.70
2008,11,25,07,00,4.70
2008,11,25,07,01,4.70
2008,11,25,07,02,4.70
2008,11,25,07,03,4.80
2008,11,25,07,04,4.80
2008,11,25,07,05,4.80
2008,11,25,07,06,4.80
2008,11,25,07,07,4.80
2008,11,25,07,08,4.90
2008,11,25,07,09,4.90
2008,11,25,07,10,4.90
2008,11,25,07,11,4.90
2008,11,25,07,12,5.00
2008,11,25,07,13,5.00
2008,11,25,07,14,5.00
2008,11,25,07,15,5.00
2008,11,25,07,16,5.00
2008,11,25,07,17,5.00
2008,11,25,07,18,5.00
2008,11,25,07,19,5.00
2008,11,25,07,20,5.10
2008,11,25,07,21,5.10
2008,11,25,07,22,5.10
2008,11,25,07,23,5.10
2008,11,25,07,24,5.10
2008,11,25,07,25,5.10
2008,11,25,07,26,5.10
2008,11,25,07,27,5.10
2008,11,25,07,28,5.10
2008,11,25,07,29,5.10
2008,11,25,07,30,5.10
2008,11,25,07,31,5.10
2008,11,25,07,32,5.10
2008,11,25,07,33,5.10
2008,11,25,07,34,5.10
2008,11,25,07,35,5.10
2008,11,25,07,36,5.10
2008,11,25,07,37,5.20
2008,11,25,07,38,5.20
2008,11,25,07,39,5.30
2008,11,25,07,40,5.40
2008,11,25,07,41,5.50
2008,11,25,07,42,5.60
2008,11,25,07,43,5.70
2008,11,25,07,44,5.90
2008,11,25,07,45,5.90
2008,11,25,07,46,6.00
2008,11,25,07,47,6.10
2008,11,25,07,48,6.20
2008,11,25,07,49,6.20
2008,11,25,07,50,6.30
2008,11,25,07,51,6.30
2008,11,25,07,52,6.30
2008,11,25,07,53,6.30
2008,11,25,07,54,6.30
2008,11,25,07,55,6.30
2008,11,25,07,56,6.30
2008,11,25,07,57,6.30
2008,11,25,07,58,6.30
2008,11,25,07,59,6.30
2008,11,25,08,00,6.40
2008,11,25,08,01,6.40
2008,11,25,08,02,6.40
2008,11,25,08,03,6.40
2008,11,25,08,04,6.40
2008,11,25,08,05,6.40
2008,11,25,08,06,6.50
2008,11,25,08,07,6.50
2008,11,25,08,08,6.60
2008,11,25,08,09,6.60
2008,11,25,08,10,6.60
2008,11,25,08,11,6.60
2008,11,25,08,12,6.60
2008,11,25,08,13,6.70
2008,11,25,08,14,6.70
2008,11,25,08,15,6.80
2008,11,25,08,16,6.80
2008,11,25,08,17,6.80
2008,11,25,08,18,6.80
2008,11,25,08,19,6.90
2008,11,25,08,20,6.90
2008,11,25,08,21,6.90
2008,11,25,08,22,6.90
2008,11,25,08,23,7.00
2008,11,25,08,24,7.00
2008,11,25,08,25,7.00
2008,11,25,08,26,7.00
2008,11,25,08,27,7.10
2008,11,25,08,28,7.10
2008,11,25,08,29,7.10
2008,11,25,08,30,7.10
2008,11,25,08,31,7.10
2008,11,25,08,32,7.10
2008,11,25,08,33,7.10
2008,11,25,08,34,7.10
2008,11,25,08,35,7.20
2008,11,25,08,36,7.20
2008,11,25,08,37,7.20
2008,11,25,08,38,7.20
2008,11,25,08,39,7.20
2008,11,25,08,40,7.20
2008,11,25,08,41,7.20
2008,11,25,08,42,7.20
2008,11,25,08,43,7.20
2008,11,25,08,44,7.20
2008,11,25,08,45,7.20
2008,11,25,08,46,7.20
2008,11,25,08,47,7.20
2008,11,25,08,48,7.10
2008,11,25,08,49,7.10
2008,11,25,08,50,7.10
2008,11,25,08,51,7.10
2008,11,25,08,52,7.10
2008,11,25,08,53,7.10
2008,11,25,08,54,7.10
2008,11,25,08,55,7.10
2008,11,25,08,56,7.10
2008,11,25,08,57,7.10
2008,11,25,08,58,7.10
2008,11,25,08,59,7.10
2008,11,25,09,00,7.10
2008,11,25,09,01,7.10
2008,11,25,09,02,7.10
2008,11,25,09,03,7.10
2008,11,25,09,04,7.10
2008,11,25,09,05,7.10
2008,11,25,09,06,7.10
2008,11,25,09,07,7.10
2008,11,25,09,08,7.20
2008,11,25,09,09,7.20
2008,11,25,09,10,7.20
2008,11,25,09,11,7.20
2008,11,25,09,12,7.20
2008,11,25,09,13,7.20
2008,11,25,09,14,7.20
2008,11,25,09,15,7.20
2008,11,25,09,16,7.20
2008,11,25,09,17,7.20
2008,11,25,09,18,7.10
2008,11,25,09,19,7.10
2008,11,25,09,20,7.10
2008,11,25,09,21,7.10
2008,11,25,09,22,7.10
2008,11,25,09,23,7.10
2008,11,25,09,24,7.10
2008,11,25,09,25,7.10
2008,11,25,09,26,7.10
2008,11,25,09,27,7.10
2008,11,25,09,28,7.10
2008,11,25,09,29,7.10
2008,11,25,09,30,7.10
2008,11,25,09,31,7.10
2008,11,25,09,32,7.10
2008,11,25,09,33,7.10
2008,11,25,09,34,7.10
2008,11,25,09,35,7.10
2008,11,25,09,36,7.20
2008,11,25,09,37,7.20
2008,11,25,09,38,7.20
2008,11,25,09,39,7.20
2008,11,25,09,40,7.20
2008,11,25,09,41,7.20
2008,11,25,09,42,7.20
2008,11,25,09,43,7.20
2008,11,25,09,44,7.20
2008,11,25,09,45,7.20
2008,11,25,09,46,7.20
2008,11,25,09,47,7.20
2008,11,25,09,48,7.20
2008,11,25,09,49,7.20
2008,11,25,09,50,7.20
2008,11,25,09,51,7.20
2008,11,25,09,52,7.20
2008,11,25,09,53,7.20
2008,11,25,09,54,7.20
2008,11,25,09,55,7.20
2008,11,25,09,56,7.30
2008,11,25,09,57,7.30
2008,11,25,09,58,7.30
2008,11,25,09,59,7.30
2008,11,25,10,00,7.30
2008,11,25,10,01,7.30
2008,11,25,10,02,7.30
2008,11,25,10,03,7.30
2008,11,25,10,04,7.30
2008,11,25,10,05,7.30
2008,11,25,10,06,7.30
2008,11,25,10,07,7.30
2008,11,25,10,08,7.30
2008,11,25,10,09,7.30
2008,11,25,10,10,7.40
2008,11,25,10,11,7.40
2008,11,25,10,12,7.40
2008,11,25,10,13,7.40
2008,11,25,10,14,7.40
2008,11,25,10,15,7.40
2008,11,25,10,16,7.50
2008,11,25,10,17,7.50
2008,11,25,10,18,7.50
2008,11,25,10,19,7.50
2008,11,25,10,20,7.50
2008,11,25,10,21,7.60
2008,11,25,10,22,7.60
2008,11,25,10,23,7.60
2008,11,25,10,24,7.60
2008,11,25,10,25,7.60
2008,11,25,10,26,7.60
2008,11,25,10,27,7.60
2008,11,25,10,28,7.60
2008,11,25,10,29,7.60
2008,11,25,10,30,7.60
2008,11,25,10,31,7.60
2008,11,25,10,32,7.60
2008,11,25,10,33,7.60
2008,11,25,10,34,7.60
2008,11,25,10,35,7.60
2008,11,25,10,36,7.60
2008,11,25,10,37,7.60
2008,11,25,10,38,7.60
2008,11,25,10,39,7.60
2008,11,25,10,40,7.60
2008,11,25,10,41,7.60
2008,11,25,10,42,7.70
2008,11,25,10,43,7.70
2008,11,25,10,44,7.70
2008,11,25,10,45,7.70
2008,11,25,10,46,7.70
2008,11,25,10,47,7.70
2008,11,25,10,48,7.70
2008,11,25,10,49,7.80
2008,11,25,10,50,7.80
2008,11,25,10,51,7.80
2008,11,25,10,52,7.80
2008,11,25,10,53,7.80
2008,11,25,10,54,7.80
2008,11,25,10,55,7.80
2008,11,25,10,56,7.80
2008,11,25,10,57,7.80
2008,11,25,10,58,7.90
2008,11,25,10,59,7.90
2008,11,25,11,00,7.90
2008,11,25,11,01,7.90
2008,11,25,11,02,8.00
2008,11,25,11,03,8.00
2008,11,25,11,04,8.00
2008,11,25,11,05,8.00
2008,11,25,11,06,8.00
2008,11,25,11,07,8.10
2008,11,25,11,08,8.10
2008,11,25,11,09,8.10
2008,11,25,11,10,8.10
2008,11,25,11,11,8.10
2008,11,25,11,12,8.10
2008,11,25,11,13,8.20
2008,11,25,11,14,8.20
2008,11,25,11,15,8.20
2008,11,25,11,16,8.30
2008,11,25,11,17,8.30
2008,11,25,11,18,8.40
2008,11,25,11,19,8.40
2008,11,25,11,20,8.40
2008,11,25,11,21,8.40
2008,11,25,11,22,8.40
2008,11,25,11,23,8.40
2008,11,25,11,24,8.50
2008,11,25,11,25,8.50
2008,11,25,11,26,8.50
2008,11,25,11,27,8.60
2008,11,25,11,28,8.60
2008,11,25,11,29,8.60
2008,11,25,11,30,8.60
2008,11,25,11,31,8.60
2008,11,25,11,32,8.60
2008,11,25,11,33,8.60
2008,11,25,11,34,8.60
2008,11,25,11,35,8.60
2008,11,25,11,36,8.70
2008,11,25,11,37,8.70
2008,11,25,11,38,8.70
2008,11,25,11,39,8.70
2008,11,25,11,40,8.80
2008,11,25,11,41,8.80
2008,11,25,11,42,8.80
2008,11,25,11,43,8.80
2008,11,25,11,44,8.90
2008,11,25,11,45,8.90
2008,11,25,11,46,8.90
2008,11,25,11,47,8.90
2008,11,25,11,48,8.90
2008,11,25,11,49,8.90
2008,11,25,11,50,8.90
2008,11,25,11,51,8.90
2008,11,25,11,52,9.00
2008,11,25,11,53,9.10
2008,11,25,11,54,9.10
2008,11,25,11,55,9.20
2008,11,25,11,56,9.20
2008,11,25,11,57,9.20
2008,11,25,11,58,9.20
2008,11,25,11,59,9.20
2008,11,25,12,00,9.30
2008,11,25,12,01,9.30
2008,11,25,12,02,9.30
2008,11,25,12,03,9.30
2008,11,25,12,04,9.40
2008,11,25,12,05,9.40
2008,11,25,12,06,9.50
2008,11,25,12,07,9.50
2008,11,25,12,08,9.60
2008,11,25,12,09,9.60
2008,11,25,12,10,9.70
2008,11,25,12,11,9.70
2008,11,25,12,12,9.80
2008,11,25,12,13,9.80
2008,11,25,12,14,9.80
2008,11,25,12,15,9.90
2008,11,25,12,16,10.00
2008,11,25,12,17,10.00
2008,11,25,12,18,10.10
2008,11,25,12,19,10.20
2008,11,25,12,20,10.20
2008,11,25,12,21,10.30
2008,11,25,12,22,10.30
2008,11,25,12,23,10.40
2008,11,25,12,24,10.40
2008,11,25,12,25,10.50
2008,11,25,12,26,10.50
2008,11,25,12,27,10.60
2008,11,25,12,28,10.70
2008,11,25,12,29,10.70
2008,11,25,12,30,10.80
2008,11,25,12,31,10.80
2008,11,25,12,32,10.80
2008,11,25,12,33,10.90
2008,11,25,12,34,10.90
2008,11,25,12,35,11.00
2008,11,25,12,36,11.00
2008,11,25,12,37,11.10
2008,11,25,12,38,11.10
2008,11,25,12,39,11.10
2008,11,25,12,40,11.10
2008,11,25,12,41,11.10
2008,11,25,12,42,11.10
2008,11,25,12,43,11.10
2008,11,25,12,44,11.10
2008,11,25,12,45,11.00
2008,11,25,12,46,11.00
2008,11,25,12,47,11.00
2008,11,25,12,48,11.00
2008,11,25,12,49,11.10
2008,11,25,12,50,11.10
2008,11,25,12,51,11.20
2008,11,25,12,52,11.20
2008,11,25,12,53,11.20
2008,11,25,12,54,11.20
2008,11,25,12,55,11.30
2008,11,25,12,56,11.30
2008,11,25,12,57,11.30
2008,11,25,12,58,11.40
2008,11,25,12,59,11.40
2008,11,25,13,00,11.40
2008,11,25,13,01,11.40
2008,11,25,13,02,11.40
2008,11,25,13,03,11.40
2008,11,25,13,04,11.50
2008,11,25,13,05,11.50
2008,11,25,13,06,11.60
2008,11,25,13,07,11.60
2008,11,25,13,08,11.60
2008,11,25,13,09,11.60
2008,11,25,13,10,11.70
2008,11,25,13,11,11.70
2008,11,25,13,12,11.80
2008,11,25,13,13,11.80
2008,11,25,13,14,11.90
2008,11,25,13,15,11.90
2008,11,25,13,16,11.90
2008,11,25,13,17,12.00
2008,11,25,13,18,12.00
2008,11,25,13,19,12.10
2008,11,25,13,20,12.10
2008,11,25,13,21,12.10
2008,11,25,13,22,12.10
2008,11,25,13,23,12.20
2008,11,25,13,24,12.20
2008,11,25,13,25,12.20
2008,11,25,13,26,12.20
2008,11,25,13,27,12.20
2008,11,25,13,28,12.20
2008,11,25,13,29,12.30
2008,11,25,13,30,12.30
2008,11,25,13,31,12.30
2008,11,25,13,32,12.20
2008,11,25,13,33,12.20
2008,11,25,13,34,12.20
2008,11,25,13,35,12.20
2008,11,25,13,36,12.20
2008,11,25,13,37,12.20
2008,11,25,13,38,12.20
2008,11,25,13,39,12.20
2008,11,25,13,40,12.20
2008,11,25,13,41,12.30
2008,11,25,13,42,12.30
2008,11,25,13,43,12.30
2008,11,25,13,44,12.30
2008,11,25,13,45,12.30
2008,11,25,13,46,12.30
2008,11,25,13,47,12.30
2008,11,25,13,48,12.20
2008,11,25,13,49,12.20
2008,11,25,13,50,12.20
2008,11,25,13,51,12.20
2008,11,25,13,52,12.10
2008,11,25,13,53,12.10
2008,11,25,13,54,12.00
2008,11,25,13,55,11.90
2008,11,25,13,56,11.90
2008,11,25,13,57,11.80
2008,11,25,13,58,11.80
2008,11,25,13,59,11.80
2008,11,25,14,00,11.80
2008,11,25,14,01,11.80
2008,11,25,14,02,11.80
2008,11,25,14,03,11.80
2008,11,25,14,04,11.80
2008,11,25,14,05,11.70
2008,11,25,14,06,11.70
2008,11,25,14,07,11.70
2008,11,25,14,08,11.70
2008,11,25,14,09,11.80
2008,11,25,14,10,11.80
2008,11,25,14,11,11.80
2008,11,25,14,12,11.80
2008,11,25,14,13,11.80
2008,11,25,14,14,11.80
2008,11,25,14,15,11.90
2008,11,25,14,16,11.90
2008,11,25,14,17,11.90
2008,11,25,14,18,11.80
2008,11,25,14,19,11.80
2008,11,25,14,20,11.80
2008,11,25,14,21,11.80
2008,11,25,14,22,11.70
2008,11,25,14,23,11.70
2008,11,25,14,24,11.70
2008,11,25,14,25,11.60
2008,11,25,14,26,11.50
2008,11,25,14,27,11.40
2008,11,25,14,28,11.30
2008,11,25,14,29,11.30
2008,11,25,14,30,11.20
2008,11,25,14,31,11.20
2008,11,25,14,32,11.20
2008,11,25,14,33,11.20
2008,11,25,14,34,11.20
2008,11,25,14,35,11.20
2008,11,25,14,36,11.20
2008,11,25,14,37,11.10
2008,11,25,14,38,11.10
2008,11,25,14,39,11.00
2008,11,25,14,40,11.00
2008,11,25,14,41,11.00
2008,11,25,14,42,10.90
2008,11,25,14,43,10.90
2008,11,25,14,44,10.90
2008,11,25,14,45,10.80
2008,11,25,14,46,10.80
2008,11,25,14,47,10.80
2008,11,25,14,48,10.80
2008,11,25,14,49,10.80
2008,11,25,14,50,10.80
2008,11,25,14,51,10.80
2008,11,25,14,52,10.70
2008,11,25,14,53,10.70
2008,11,25,14,54,10.70
2008,11,25,14,55,10.70
2008,11,25,14,56,10.70
2008,11,25,14,57,10.70
2008,11,25,14,58,10.60
2008,11,25,14,59,10.60
2008,11,25,15,00,10.50
2008,11,25,15,01,10.60
2008,11,25,15,02,10.50
2008,11,25,15,03,10.50
2008,11,25,15,04,10.40
2008,11,25,15,05,10.40
2008,11,25,15,06,10.40
2008,11,25,15,07,10.40
2008,11,25,15,08,10.40
2008,11,25,15,09,10.40
2008,11,25,15,10,10.40
2008,11,25,15,11,10.40
2008,11,25,15,12,10.30
2008,11,25,15,13,10.30
2008,11,25,15,14,10.30
2008,11,25,15,15,10.30
2008,11,25,15,16,10.30
2008,11,25,15,17,10.30
2008,11,25,15,18,10.30
2008,11,25,15,19,10.20
2008,11,25,15,20,10.20
2008,11,25,15,21,10.20
2008,11,25,15,22,10.20
2008,11,25,15,23,10.10
2008,11,25,15,24,10.10
2008,11,25,15,25,10.10
2008,11,25,15,26,10.10
2008,11,25,15,27,10.10
2008,11,25,15,28,10.00
2008,11,25,15,29,10.00
2008,11,25,15,30,10.00
2008,11,25,15,31,10.00
2008,11,25,15,32,10.00
2008,11,25,15,33,9.90
2008,11,25,15,34,9.90
2008,11,25,15,35,9.90
2008,11,25,15,36,9.90
2008,11,25,15,37,9.90
2008,11,25,15,38,9.90
2008,11,25,15,39,9.90
2008,11,25,15,40,9.90
2008,11,25,15,41,9.80
2008,11,25,15,42,9.80
2008,11,25,15,43,9.80
2008,11,25,15,44,9.80
2008,11,25,15,45,9.80
2008,11,25,15,46,9.80
2008,11,25,15,47,9.70
2008,11,25,15,48,9.70
2008,11,25,15,49,9.70
2008,11,25,15,50,9.60
2008,11,25,15,51,9.60
2008,11,25,15,52,9.60
2008,11,25,15,53,9.60
2008,11,25,15,54,9.60
2008,11,25,15,55,9.60
2008,11,25,15,56,9.60
2008,11,25,15,57,9.60
2008,11,25,15,58,9.50
2008,11,25,15,59,9.50
2008,11,25,16,00,9.50
2008,11,25,16,01,9.40
2008,11,25,16,02,9.40
2008,11,25,16,03,9.30
2008,11,25,16,04,9.30
2008,11,25,16,05,9.20
2008,11,25,16,06,9.20
2008,11,25,16,07,9.10
2008,11,25,16,08,9.10
2008,11,25,16,09,9.10
2008,11,25,16,10,9.10
2008,11,25,16,11,9.20
2008,11,25,16,12,9.20
2008,11,25,16,13,9.20
2008,11,25,16,14,9.10
2008,11,25,16,15,9.10
2008,11,25,16,16,9.00
2008,11,25,16,17,8.90
2008,11,25,16,18,8.90
2008,11,25,16,19,8.90
2008,11,25,16,20,8.80
2008,11,25,16,21,8.80
2008,11,25,16,22,8.80
2008,11,25,16,23,8.80
2008,11,25,16,24,8.80
2008,11,25,16,25,8.70
2008,11,25,16,26,8.70
2008,11,25,16,27,8.70
2008,11,25,16,28,8.70
2008,11,25,16,29,8.70
2008,11,25,16,30,8.70
2008,11,25,16,31,8.70
2008,11,25,16,32,8.70
2008,11,25,16,33,8.60
2008,11,25,16,34,8.50
2008,11,25,16,35,8.50
2008,11,25,16,36,8.40
2008,11,25,16,37,8.30
2008,11,25,16,38,8.30
2008,11,25,16,39,8.30
2008,11,25,16,40,8.20
2008,11,25,16,41,8.20
2008,11,25,16,42,8.20
2008,11,25,16,43,8.20
2008,11,25,16,44,8.20
2008,11,25,16,45,8.20
2008,11,25,16,46,8.30
2008,11,25,16,47,8.30
2008,11,25,16,48,8.30
2008,11,25,16,49,8.30
2008,11,25,16,50,8.40
2008,11,25,16,51,8.40
2008,11,25,16,52,8.40
2008,11,25,16,53,8.40
2008,11,25,16,54,8.40
2008,11,25,16,55,8.40
2008,11,25,16,56,8.50
2008,11,25,16,57,8.50
2008,11,25,16,58,8.50
2008,11,25,16,59,8.50
2008,11,25,17,00,8.50
2008,11,25,17,01,8.50
2008,11,25,17,02,8.50
2008,11,25,17,03,8.50
2008,11,25,17,04,8.50
2008,11,25,17,05,8.40
2008,11,25,17,06,8.40
2008,11,25,17,07,8.40
2008,11,25,17,08,8.40
2008,11,25,17,09,8.40
2008,11,25,17,10,8.40
2008,11,25,17,11,8.40
2008,11,25,17,12,8.40
2008,11,25,17,13,8.40
2008,11,25,17,14,8.40
2008,11,25,17,15,8.40
2008,11,25,17,16,8.40
2008,11,25,17,17,8.40
2008,11,25,17,18,8.50
2008,11,25,17,19,8.50
2008,11,25,17,20,8.50
2008,11,25,17,21,8.50
2008,11,25,17,22,8.50
2008,11,25,17,23,8.50
2008,11,25,17,24,8.40
2008,11,25,17,25,8.40
2008,11,25,17,26,8.40
2008,11,25,17,27,8.40
2008,11,25,17,28,8.40
2008,11,25,17,29,8.40
2008,11,25,17,30,8.40
2008,11,25,17,31,8.40
2008,11,25,17,32,8.30
2008,11,25,17,33,8.30
2008,11,25,17,34,8.30
2008,11,25,17,35,8.30
2008,11,25,17,36,8.20
2008,11,25,17,37,8.20
2008,11,25,17,38,8.20
2008,11,25,17,39,8.10
2008,11,25,17,40,8.00
2008,11,25,17,41,8.00
2008,11,25,17,42,8.00
2008,11,25,17,43,8.00
2008,11,25,17,44,8.10
2008,11,25,17,45,8.10
2008,11,25,17,46,8.10
2008,11,25,17,47,8.10
2008,11,25,17,48,8.20
2008,11,25,17,49,8.20
2008,11,25,17,50,8.20
2008,11,25,17,51,8.30
2008,11,25,17,52,8.30
2008,11,25,17,53,8.30
2008,11,25,17,54,8.30
2008,11,25,17,55,8.30
2008,11,25,17,56,8.30
2008,11,25,17,57,8.30